FW2885 Weather Reports


Display with metric or nautical units.
time (UTC)temp
F
wind
direction
speed
MPH
gust
MPH
rain 1hr
in
rain 24hr
in
rain mn
in
humidity
%
barometer
mb
20260504044546 51 270 0.0 0.0 0.00 0.00 0.00 37 1001.6
20260504043053 51 270 0.0 1.0 0.00 0.00 0.00 37 1001.8
20260504041546 53 270 0.0 1.0 0.00 0.00 0.00 35 1001.9
20260504040047 56 270 0.0 2.0 0.00 0.00 0.00 32 1002.1
20260504034552 57 270 0.0 2.0 0.00 0.00 0.00 30 1002.3
20260504033043 58 270 1.0 3.0 0.00 0.00 0.00 28 1002.5
20260504031544 58 268 4.0 5.0 0.00 0.00 0.00 28 1002.7
20260504030043 58 284 0.0 1.0 0.00 0.00 0.00 28 1002.6
20260504024548 59 279 1.0 5.0 0.00 0.00 0.00 26 1002.5
20260504023042 60 277 1.0 4.0 0.00 0.00 0.00 26 1002.4
20260504021542 61 269 2.0 6.0 0.00 0.00 0.00 25 1002.4
20260504020043 63 275 2.0 5.0 0.00 0.00 0.00 23 1002.3
20260504014541 64 265 6.0 9.0 0.00 0.00 0.00 21 1002.2
20260504013055 65 273 7.0 9.0 0.00 0.00 0.00 21 1002.1
20260504011539 67 277 6.0 10.0 0.00 0.00 0.00 18 1002.0
20260504010041 68 312 8.0 10.0 0.00 0.00 0.00 18 1001.9
20260504004537 70 269 6.0 10.0 0.00 0.00 0.00 18 1001.9
20260504003036 71 261 6.0 10.0 0.00 0.00 0.00 16 1001.8
20260504001540 72 289 6.0 13.0 0.00 0.00 0.00 15 1001.8
20260504000036 73 274 11.0 15.0 0.00 0.00 0.00 14 1001.8
20260503234635 74 331 4.0 13.0 0.00 0.00 0.00 12 1001.8
20260503233034 74 279 6.0 15.0 0.00 0.00 0.00 12 1001.8
20260503231534 74 29 9.0 19.0 0.00 0.00 0.00 11 1001.8
20260503230039 74 261 12.0 19.0 0.00 0.00 0.00 9 1001.8
20260503224534 75 355 9.0 15.0 0.00 0.00 0.00 9 1001.8
20260503223031 75 282 3.0 18.0 0.00 0.00 0.00 11 1001.7
20260503221532 75 271 11.0 18.0 0.00 0.00 0.00 10 1001.7
20260503220030 75 5 10.0 20.0 0.00 0.00 0.00 11 1001.6
20260503214537 75 273 9.0 19.0 0.00 0.00 0.00 12 1001.6
20260503213029 76 303 8.0 16.0 0.00 0.00 0.00 12 1001.6
20260503211528 74 331 13.0 20.0 0.00 0.00 0.00 12 1001.6
20260503210027 75 355 9.0 15.0 0.00 0.00 0.00 12 1001.8
20260503204525 74 315 8.0 19.0 0.00 0.00 0.00 14 1001.8
20260503203033 74 331 8.0 23.0 0.00 0.00 0.00 14 1002.0
20260503201524 75 355 10.0 18.0 0.00 0.00 0.00 14 1002.1
20260503200025 75 302 7.0 19.0 0.00 0.00 0.00 14 1002.1
20260503194520 74 327 11.0 21.0 0.00 0.00 0.00 15 1002.2
20260503193034 74 271 16.0 24.0 0.00 0.00 0.00 15 1002.1
20260503191538 74 271 8.0 18.0 0.00 0.00 0.00 16 1002.1
20260503190026 74 254 11.0 20.0 0.00 0.00 0.00 17 1002.1
20260503184516 74 248 13.0 24.0 0.00 0.00 0.00 16 1002.1
20260503183013 73 264 14.0 26.0 0.00 0.00 0.00 18 1002.3
20260503181511 73 360 6.0 18.0 0.00 0.00 0.00 19 1002.3
20260503180009 72 298 12.0 21.0 0.00 0.00 0.00 20 1002.4
20260503174504 70 252 11.0 22.0 0.00 0.00 0.00 23 1002.7
20260503173002 69 295 15.0 22.0 0.00 0.00 0.00 24 1002.9
20260503171559 68 246 13.0 22.0 0.00 0.00 0.00 28 1003.1
20260503170113 67 259 13.0 23.0 0.00 0.00 0.00 27 1003.2
20260503081555 52 360 10.0 14.0 0.00 0.00 0.00 36 1008.9